Погода в Сухотском

Россия / Республика Северная Осетия — Алания     43°40′29″N   44°26′36″E
темп.,
°C
ветер,
м/с
пор.,
м/с
влажн.,
%
обл.,
%
осадки,
мм/ч
давл.,
гПа
погр.,
м
26 сентября, вс
вс2600:00+12юз478877 3.8 1020330
03:00+10юз47850 3.8 1022138
06:00+10юз34805 0.0 102253
09:00+15з510595 0.0 1021868
12:00+19зсз564370 0.0 10201574
15:00+20зюз354164 0.0 10181525
18:00+16юз33514 0.0 101733
21:00+15зюз33560 0.0 101736
27 сентября, пн
пн2700:00+13юз47650 0.0 1016107
03:00+13з22660 0.0 101628
06:00+12зсз346778 0.0 101652
09:00+16зсз41064100 0.0 1016696
12:00+19ссз695945 0.0 10151303
15:00+17ссз576139 0.0 1016840
18:00+15зсз3561100 0.0 1017347
21:00+15з3566100 0.0 1017251
28 сентября, вт
вт2800:00+14з2369100 0.0 101795
03:00+14сз1273100 0.0 101753
06:00+13ссв2271100 0.0 101753
09:00+14всв2258100 0.0 1018331
12:00+16св225176 0.0 1019916
15:00+18ссв224664 0.0 10181457
18:00+16с2252100 0.0 102047
21:00+14зюз3362100 0.0 1021104
29 сентября, ср
ср2900:00+14с1162100 0.0 102125
03:00+13св2464100 0.0 1021168
06:00+13всв3672100 0.0 1022362
09:00+13в4672100 0.0 1023472
12:00+13в4669100 0.0 1023561
15:00+13в3560100 0.0 1022580
18:00+12всв2364100 0.2 1024110
21:00+10зюз1184100 1.3 1025147
30 сентября, чт
чт3000:00+10с1290100 1.3 1025187
03:00+9с2388100 2.1 1024320
06:00+9св3681100 0.7 1026477
09:00+9св5772100 0.9 1028585
12:00+9св4473100 0.0 1029687
15:00+9всв3370100 0.0 1029712
18:00+9в1274100 0.0 1029293
21:00+9ю1177100 0.0 103081